EW9362 Weather Reports


Display with metric or nautical units.
time (UTC)temp
F
wind
direction
speed
MPH
gust
MPH
rain 1hr
in
rain 24hr
in
rain mn
in
humidity
%
barometer
mb
20260510204544 74 49 5.0 10.0 0.00 0.00 0.00 45 1015.8
20260510204031 74 51 5.0 12.0 0.00 0.00 0.00 46 1015.9
20260510203531 74 342 6.0 12.0 0.00 0.00 0.00 46 1015.9
20260510203041 74 37 5.0 11.0 0.00 0.00 0.00 48 1015.9
20260510202528 74 0 2.0 9.0 0.00 0.00 0.00 47 1015.8
20260510202032 73 25 5.0 9.0 0.00 0.00 0.00 48 1015.8
20260510201541 74 15 5.0 15.0 0.00 0.00 0.00 48 1015.8
20260510201028 73 6 5.0 15.0 0.00 0.00 0.00 50 1015.8
20260510200532 74 9 3.0 13.0 0.00 0.00 0.00 48 1015.8
20260510200112 73 13 6.0 13.0 0.00 0.00 0.00 48 1015.8
20260510195530 74 347 3.0 10.0 0.00 0.00 0.00 48 1015.8
20260510195028 74 1 5.0 12.0 0.00 0.00 0.00 49 1015.8
20260510194554 74 355 6.0 12.0 0.00 0.00 0.00 51 1015.9
20260510194030 74 3 6.0 11.0 0.00 0.00 0.00 52 1015.8
20260510193532 74 60 5.0 12.0 0.00 0.00 0.00 52 1015.9
20260510193051 74 37 5.0 12.0 0.00 0.00 0.00 52 1015.7
20260510192531 74 4 4.0 13.0 0.00 0.00 0.00 52 1015.7
20260510192031 74 18 5.0 13.0 0.00 0.00 0.00 53 1015.7
20260510191553 75 39 3.0 11.0 0.00 0.00 0.00 53 1015.6
20260510191031 74 31 4.0 11.0 0.00 0.00 0.00 52 1015.6
20260510190532 75 340 4.0 11.0 0.00 0.00 0.00 53 1015.7
20260510190043 74 6 3.0 10.0 0.00 0.00 0.00 53 1015.7
20260510185531 73 348 5.0 10.0 0.00 0.00 0.00 55 1015.8
20260510185028 74 345 5.0 9.0 0.00 0.00 0.00 56 1015.9
20260510184543 74 333 5.0 9.0 0.00 0.00 0.00 56 1015.7
20260510184031 73 343 2.0 11.0 0.00 0.00 0.00 56 1015.7
20260510183530 74 49 6.0 11.0 0.00 0.00 0.00 56 1015.7
20260510183054 74 0 1.0 9.0 0.00 0.00 0.00 55 1015.6
20260510182531 74 360 5.0 11.0 0.00 0.00 0.00 55 1015.7
20260510182034 74 19 6.0 11.0 0.00 0.00 0.00 56 1015.7
20260510181545 74 349 5.0 12.0 0.00 0.00 0.00 57 1015.7
20260510181035 74 342 6.0 13.0 0.00 0.00 0.00 53 1015.7
20260510180532 74 78 4.0 13.0 0.00 0.00 0.00 53 1015.8
20260510180043 74 347 5.0 10.0 0.00 0.00 0.00 54 1015.7
20260510175531 75 1 2.0 7.0 0.00 0.00 0.00 55 1015.6
20260510175032 75 274 2.0 7.0 0.00 0.00 0.00 51 1015.6
20260510174544 77 105 0.0 12.0 0.00 0.00 0.00 48 1015.7
20260510174030 74 345 5.0 12.0 0.00 0.00 0.00 52 1015.8
20260510173533 75 7 2.0 10.0 0.00 0.00 0.00 51 1015.8
20260510173054 75 68 1.0 8.0 0.00 0.00 0.00 52 1016.0
20260510172531 75 295 2.0 7.0 0.00 0.00 0.00 55 1015.9
20260510172031 74 22 1.0 9.0 0.00 0.00 0.00 54 1015.8
20260510171552 73 324 5.0 9.0 0.00 0.00 0.00 56 1015.9
20260510171030 73 15 3.0 9.0 0.00 0.00 0.00 55 1016.0
20260510170529 74 354 0.0 10.0 0.00 0.00 0.00 54 1016.0
20260510170045 74 42 3.0 10.0 0.00 0.00 0.00 55 1015.9
20260510165531 73 6 5.0 10.0 0.00 0.00 0.00 56 1016.1
20260510165030 72 356 3.0 8.0 0.00 0.00 0.00 56 1016.1
20260510164546 73 73 1.0 12.0 0.00 0.00 0.00 53 1015.9
20260510164032 72 300 4.0 12.0 0.00 0.00 0.00 56 1015.9
20260510163531 73 198 3.0 9.0 0.00 0.00 0.00 56 1015.8
20260510163040 72 11 1.0 13.0 0.00 0.00 0.00 56 1015.8
20260510162527 72 341 4.0 13.0 0.00 0.00 0.00 55 1015.9
20260510162031 72 351 7.0 13.0 0.00 0.00 0.00 56 1015.8
20260510161545 72 6 4.0 9.0 0.00 0.00 0.00 55 1015.7
20260510161032 72 341 3.0 8.0 0.00 0.00 0.00 56 1015.5
20260510160534 72 23 5.0 9.0 0.00 0.00 0.00 54 1015.6
20260510160047 72 319 3.0 9.0 0.00 0.00 0.00 56 1015.5
20260510155527 71 11 4.0 9.0 0.00 0.00 0.00 55 1015.6
20260510155030 72 15 5.0 9.0 0.00 0.00 0.00 57 1015.5
20260510154545 73 356 0.0 3.0 0.00 0.00 0.00 54 1015.4
20260510154032 74 140 0.0 6.0 0.00 0.00 0.00 55 1015.4
20260510153530 72 59 1.0 6.0 0.00 0.00 0.00 55 1015.5
20260510153052 72 14 1.0 5.0 0.00 0.00 0.00 56 1015.4
20260510152530 71 23 2.0 5.0 0.00 0.00 0.00 57 1015.2
20260510152030 71 103 0.0 5.0 0.00 0.00 0.00 60 1015.2
20260510151547 70 0 1.0 5.0 0.00 0.00 0.00 59 1015.3
20260510151032 70 48 2.0 8.0 0.00 0.00 0.00 61 1015.3
20260510150530 71 0 1.0 8.0 0.00 0.00 0.00 60 1015.3
20260510150050 70 11 1.0 8.0 0.00 0.00 0.00 61 1015.4
20260510145530 69 354 4.0 8.0 0.00 0.00 0.00 61 1015.4
20260510145031 69 325 1.0 6.0 0.00 0.00 0.00 62 1015.2
20260510144544 69 0 2.0 6.0 0.00 0.00 0.00 62 1015.2
20260510144031 69 44 1.0 6.0 0.00 0.00 0.00 63 1015.3
20260510143532 70 0 1.0 6.0 0.00 0.00 0.00 63 1015.4
20260510143044 69 298 0.0 6.0 0.00 0.00 0.00 64 1015.4
20260510142530 68 32 2.0 7.0 0.00 0.00 0.00 63 1015.4
20260510142028 67 344 3.0 7.0 0.00 0.00 0.00 63 1015.3
20260510141540 67 292 3.0 7.0 0.00 0.00 0.00 65 1015.2
20260510141031 68 0 0.0 8.0 0.00 0.00 0.00 66 1015.2
20260510140531 67 345 1.0 8.0 0.00 0.00 0.00 66 1015.3
20260510140140 67 14 1.0 5.0 0.00 0.00 0.00 66 1015.3
20260510135531 67 41 2.0 5.0 0.00 0.00 0.00 66 1015.0
20260510135031 68 17 0.0 4.0 0.00 0.00 0.00 65 1014.9
20260510134551 68 0 0.0 2.0 0.00 0.00 0.00 65 1014.9
20260510134030 67 0 0.0 2.0 0.00 0.00 0.00 65 1015.0
20260510133530 67 0 0.0 1.0 0.00 0.00 0.00 67 1014.9
20260510133101 66 0 0.0 2.0 0.00 0.00 0.00 67 1015.0
20260510132530 66 77 0.0 2.0 0.00 0.00 0.00 67 1014.9
20260510132030 66 0 0.0 1.0 0.00 0.00 0.00 69 1014.7
20260510131554 65 0 0.0 1.0 0.00 0.00 0.00 69 1014.5
20260510131052 64 0 0.0 1.0 0.00 0.00 0.00 69 1014.5
20260510130531 64 0 0.0 0.0 0.00 0.00 0.00 72 1014.5
20260510130043 62 0 0.0 0.0 0.00 0.00 0.00 73 1014.5
20260510125530 62 0 0.0 1.0 0.00 0.00 0.00 74 1014.4
20260510125028 62 0 0.0 2.0 0.00 0.00 0.00 73 1014.3
20260510124546 61 0 0.0 2.0 0.00 0.00 0.00 73 1014.1
20260510124028 61 0 0.0 3.0 0.00 0.00 0.00 74 1014.1
20260510123533 61 0 0.0 4.0 0.00 0.00 0.00 74 1013.9
20260510123057 61 189 0.0 4.0 0.00 0.00 0.00 74 1013.8
20260510122532 61 0 0.0 3.0 0.00 0.00 0.00 74 1013.7
20260510122027 61 0 0.0 4.0 0.00 0.00 0.00 74 1013.6
20260510121545 61 184 0.0 4.0 0.00 0.00 0.00 74 1013.5
20260510121033 61 176 1.0 4.0 0.00 0.00 0.00 74 1013.5
20260510120527 61 0 0.0 1.0 0.00 0.00 0.00 75 1013.3
20260510120046 61 0 0.0 0.0 0.00 0.00 0.00 74 1013.3
20260510115529 61 0 0.0 0.0 0.00 0.00 0.00 74 1013.2
20260510115030 61 0 0.0 0.0 0.00 0.00 0.00 75 1013.1
20260510114547 60 0 0.0 0.0 0.00 0.00 0.00 74 1013.0
20260510114034 60 0 0.0 0.0 0.00 0.00 0.00 74 1012.8
20260510113530 60 0 0.0 0.0 0.00 0.00 0.00 74 1012.8
20260510113047 60 0 0.0 0.0 0.00 0.00 0.00 75 1012.8
20260510112532 60 0 0.0 0.0 0.00 0.00 0.00 74 1012.9
20260510112031 60 0 0.0 0.0 0.00 0.00 0.00 74 1012.9
20260510111545 60 0 0.0 0.0 0.00 0.00 0.00 73 1013.0
20260510111028 60 0 0.0 0.0 0.00 0.00 0.00 74 1013.0
20260510110530 60 0 0.0 0.0 0.00 0.00 0.00 73 1012.9
20260510110046 60 0 0.0 0.0 0.00 0.00 0.00 73 1012.9
20260510105527 60 0 0.0 0.0 0.00 0.00 0.00 72 1012.7
20260510105031 60 0 0.0 0.0 0.00 0.00 0.00 73 1012.6
20260510104543 60 0 0.0 0.0 0.00 0.00 0.00 73 1012.6
20260510104030 61 0 0.0 0.0 0.00 0.00 0.00 71 1012.6
20260510103530 61 0 0.0 0.0 0.00 0.00 0.00 70 1012.5
20260510103044 61 0 0.0 0.0 0.00 0.00 0.00 70 1012.3
20260510102530 61 0 0.0 0.0 0.00 0.00 0.00 71 1012.4
20260510102031 60 0 0.0 2.0 0.00 0.00 0.00 71 1012.2
20260510101540 60 0 0.0 2.0 0.00 0.00 0.00 71 1012.3
20260510101030 60 0 0.0 2.0 0.00 0.00 0.00 72 1012.1
20260510100531 60 0 0.0 1.0 0.00 0.00 0.00 71 1012.1
20260510100047 60 158 0.0 0.0 0.00 0.00 0.00 72 1012.1
20260510095531 60 0 0.0 0.0 0.00 0.00 0.00 71 1012.2
20260510095030 60 0 0.0 0.0 0.00 0.00 0.00 70 1012.2
20260510094546 61 0 0.0 1.0 0.00 0.00 0.00 70 1012.2
20260510094030 60 0 0.0 2.0 0.00 0.00 0.00 71 1012.1
20260510093529 60 0 0.0 2.0 0.00 0.00 0.00 71 1012.1
20260510093044 60 0 0.0 2.0 0.00 0.00 0.00 71 1012.1
20260510092530 59 0 0.0 2.0 0.00 0.00 0.00 74 1012.0
20260510092034 59 90 0.0 0.0 0.00 0.00 0.00 75 1011.9
20260510091548 60 0 0.0 0.0 0.00 0.00 0.00 72 1011.6
20260510091033 60 0 0.0 0.0 0.00 0.00 0.00 70 1011.6
20260510090531 60 0 0.0 0.0 0.00 0.00 0.00 70 1011.6
20260510090040 60 0 0.0 0.0 0.00 0.00 0.00 70 1011.5
20260510085530 60 160 0.0 0.0 0.00 0.00 0.00 71 1011.6
20260510085027 60 0 0.0 0.0 0.00 0.00 0.00 70 1011.6
20260510084546 61 0 0.0 0.0 0.00 0.00 0.00 70 1011.6
20260510084031 61 0 0.0 0.0 0.00 0.00 0.00 70 1011.5
20260510083532 61 0 0.0 2.0 0.00 0.00 0.00 70 1011.6
20260510083045 61 0 0.0 2.0 0.00 0.00 0.00 69 1011.6
20260510082530 61 0 0.0 1.0 0.00 0.00 0.00 69 1011.5
20260510082027 61 0 0.0 2.0 0.00 0.00 0.00 70 1011.4
20260510081549 61 0 0.0 2.0 0.00 0.00 0.00 69 1011.4
20260510081029 61 197 0.0 2.0 0.00 0.00 0.00 69 1011.4
20260510080532 61 0 0.0 2.0 0.00 0.00 0.00 69 1011.4
20260510080041 61 194 0.0 2.0 0.00 0.00 0.00 69 1011.3
20260510075530 61 0 0.0 1.0 0.00 0.00 0.00 70 1011.3
20260510075030 61 195 0.0 3.0 0.00 0.00 0.00 69 1011.3
20260510074600 61 0 0.0 3.0 0.00 0.00 0.00 69 1011.1
20260510074030 61 0 0.0 2.0 0.00 0.00 0.00 68 1011.2
20260510073526 62 196 0.0 3.0 0.00 0.00 0.00 69 1011.0
20260510073054 61 0 0.0 3.0 0.00 0.00 0.00 69 1011.0
20260510072531 61 192 0.0 2.0 0.00 0.00 0.00 69 1011.0
20260510072031 61 0 0.0 2.0 0.00 0.00 0.00 69 1011.1
20260510071555 61 0 0.0 2.0 0.00 0.00 0.00 69 1011.1
20260510071030 61 160 0.0 3.0 0.00 0.00 0.00 70 1011.2
20260510070530 61 0 0.0 3.0 0.00 0.00 0.00 69 1011.1
20260510070046 61 197 0.0 3.0 0.00 0.00 0.00 70 1011.0
20260510065530 61 199 0.0 3.0 0.00 0.00 0.00 69 1011.0
20260510065028 61 0 1.0 4.0 0.00 0.00 0.00 69 1011.0
20260510064548 61 0 0.0 4.0 0.00 0.00 0.00 70 1011.0
20260510064030 62 0 1.0 4.0 0.00 0.00 0.00 69 1011.0
20260510063530 61 0 0.0 3.0 0.00 0.00 0.00 69 1011.0
20260510063047 62 197 0.0 3.0 0.00 0.00 0.00 70 1011.1
20260510062530 62 0 1.0 3.0 0.00 0.00 0.00 70 1011.1
20260510062029 62 0 0.0 3.0 0.00 0.00 0.00 69 1011.1
20260510061550 62 0 0.0 3.0 0.00 0.00 0.00 69 1011.2
20260510061029 62 202 0.0 2.0 0.00 0.00 0.00 69 1011.2
20260510060530 62 176 0.0 1.0 0.00 0.00 0.00 69 1011.2
20260510060046 62 0 0.0 0.0 0.00 0.00 0.00 68 1011.2
20260510055530 62 0 0.0 0.0 0.00 0.00 0.00 68 1011.2
20260510055031 62 0 0.0 0.0 0.00 0.00 0.00 68 1011.2
20260510054544 62 0 0.0 0.0 0.00 0.00 0.00 69 1011.2
20260510054030 62 0 0.0 0.0 0.00 0.00 0.00 69 1011.2
20260510053528 62 0 0.0 0.0 0.00 0.00 0.00 69 1011.1
20260510053043 62 0 0.0 0.0 0.00 0.00 0.00 69 1011.2
20260510052530 62 0 0.0 0.0 0.00 0.00 0.00 68 1011.3
20260510052030 62 0 0.0 0.0 0.00 0.00 0.00 68 1011.3
20260510051544 63 0 0.0 0.0 0.00 0.00 0.00 68 1011.4
20260510051027 63 0 0.0 1.0 0.00 0.00 0.00 67 1011.4
20260510050535 63 0 0.0 2.0 0.00 0.00 0.00 66 1011.4
20260510050049 63 0 0.0 2.0 0.00 0.00 0.00 66 1011.5
20260510045528 63 0 0.0 2.0 0.00 0.00 0.00 66 1011.5
20260510045030 63 0 0.0 0.0 0.00 0.00 0.00 66 1011.4
20260510044549 63 0 0.0 0.0 0.00 0.00 0.00 65 1011.4
20260510044026 64 0 0.0 2.0 0.00 0.00 0.00 65 1011.4
20260510043530 64 177 0.0 2.0 0.00 0.00 0.00 65 1011.3
20260510043048 64 0 0.0 1.0 0.00 0.00 0.00 65 1011.3
20260510042528 64 156 0.0 2.0 0.00 0.00 0.00 65 1011.3
20260510042028 64 0 0.0 2.0 0.00 0.00 0.00 64 1011.3
20260510041542 64 0 0.0 3.0 0.00 0.00 0.00 65 1011.3
20260510041028 64 0 0.0 4.0 0.00 0.00 0.00 64 1011.3
20260510040528 64 194 0.0 4.0 0.00 0.00 0.00 63 1011.2
20260510040049 65 0 1.0 4.0 0.00 0.00 0.00 63 1011.3
20260510035530 64 171 0.0 3.0 0.00 0.00 0.00 63 1011.2
20260510035030 65 165 0.0 3.0 0.00 0.00 0.00 63 1011.3
20260510034548 65 181 0.0 3.0 0.00 0.00 0.00 63 1011.3
20260510034032 65 176 0.0 2.0 0.00 0.00 0.00 63 1011.4
20260510033528 65 0 0.0 1.0 0.00 0.00 0.00 62 1011.5
20260510033046 65 0 0.0 2.0 0.00 0.00 0.00 62 1011.5
20260510032532 65 183 0.0 2.0 0.00 0.00 0.00 61 1011.5
20260510032030 66 0 0.0 3.0 0.00 0.00 0.00 61 1011.5
20260510031552 66 0 0.0 3.0 0.00 0.00 0.00 61 1011.5
20260510031028 66 0 0.0 3.0 0.00 0.00 0.00 61 1011.5
20260510030528 66 0 0.0 1.0 0.00 0.00 0.00 61 1011.4
20260510030041 66 0 0.0 1.0 0.00 0.00 0.00 61 1011.3
20260510025528 66 0 0.0 1.0 0.00 0.00 0.00 60 1011.3
20260510025030 66 0 0.0 2.0 0.00 0.00 0.00 60 1011.2
20260510024541 66 0 0.0 2.0 0.00 0.00 0.00 59 1011.2
20260510024028 66 0 0.0 3.0 0.00 0.00 0.00 60 1011.1
20260510023528 66 0 0.0 3.0 0.00 0.00 0.00 60 1011.1
20260510023043 66 0 0.0 0.0 0.00 0.00 0.00 60 1011.0
20260510022529 66 0 0.0 0.0 0.00 0.00 0.00 60 1011.1
20260510022029 66 0 0.0 0.0 0.00 0.00 0.00 59 1011.0
20260510021544 66 0 0.0 0.0 0.00 0.00 0.00 59 1011.0
20260510021028 66 0 0.0 0.0 0.00 0.00 0.00 59 1010.9
20260510020530 66 0 0.0 0.0 0.00 0.00 0.00 58 1010.7
20260510020044 66 0 0.0 0.0 0.00 0.00 0.00 58 1010.6
20260510015529 67 0 0.0 0.0 0.00 0.00 0.00 58 1010.5
20260510015031 67 0 0.0 0.0 0.00 0.00 0.00 57 1010.6
20260510014541 67 0 0.0 0.0 0.00 0.00 0.00 57 1010.4
20260510014032 67 0 0.0 0.0 0.00 0.00 0.00 56 1010.3
20260510013531 67 0 0.0 1.0 0.00 0.00 0.00 55 1010.2
20260510013040 68 0 0.0 1.0 0.00 0.00 0.00 55 1010.1
20260510012529 68 0 0.0 0.0 0.00 0.00 0.00 54 1009.8
20260510012030 68 0 0.0 0.0 0.00 0.00 0.00 54 1009.9
20260510011545 69 0 0.0 0.0 0.00 0.00 0.00 53 1009.8
20260510011029 69 0 0.0 0.0 0.00 0.00 0.00 53 1009.7
20260510010528 69 0 0.0 1.0 0.00 0.00 0.00 52 1009.6
20260510010046 70 0 0.0 1.0 0.00 0.00 0.00 51 1009.5
20260510005528 70 0 0.0 1.0 0.00 0.00 0.00 51 1009.4
20260510005030 70 208 0.0 1.0 0.00 0.00 0.00 50 1009.4
20260510004543 71 0 0.0 1.0 0.00 0.00 0.00 49 1009.2
20260510004051 72 0 0.0 0.0 0.00 0.00 0.00 48 1009.1
20260510003530 72 0 0.0 0.0 0.00 0.00 0.00 47 1009.1
20260510003047 73 0 0.0 0.0 0.00 0.00 0.00 46 1009.0
20260510002531 74 0 0.0 1.0 0.00 0.00 0.00 46 1009.0
20260510002030 74 0 0.0 2.0 0.00 0.00 0.00 45 1009.0
20260510001552 75 0 0.0 2.0 0.00 0.00 0.00 44 1008.8
20260510001030 76 0 0.0 2.0 0.00 0.00 0.00 44 1008.9
20260510000529 76 0 0.0 2.0 0.00 0.00 0.00 43 1008.8
20260510000046 77 0 0.0 2.0 0.00 0.00 0.00 42 1008.6
20260509235528 77 0 0.0 6.0 0.00 0.00 0.00 42 1008.6
20260509235032 77 0 0.0 6.0 0.00 0.00 0.00 41 1008.4
20260509234543 78 15 0.0 3.0 0.00 0.00 0.00 40 1008.4
20260509234032 78 0 0.0 5.0 0.00 0.00 0.00 40 1008.5
20260509233529 78 86 0.0 5.0 0.00 0.00 0.00 39 1008.5
20260509233050 78 0 0.0 2.0 0.00 0.00 0.00 40 1008.4
20260509232532 77 0 0.0 4.0 0.00 0.00 0.00 40 1008.5
20260509232032 78 224 0.0 6.0 0.00 0.00 0.00 40 1008.5
20260509231545 77 0 1.0 6.0 0.00 0.00 0.00 40 1008.4
20260509231032 78 195 0.0 3.0 0.00 0.00 0.00 40 1008.5
20260509230532 78 162 0.0 6.0 0.00 0.00 0.00 40 1008.4
20260509230040 78 0 0.0 6.0 0.00 0.00 0.00 39 1008.6
20260509225529 78 186 1.0 9.0 0.00 0.00 0.00 39 1008.5
20260509225035 78 113 2.0 12.0 0.00 0.00 0.00 39 1008.5
20260509224555 78 35 1.0 12.0 0.00 0.00 0.00 42 1008.5
20260509224030 78 34 1.0 10.0 0.00 0.00 0.00 39 1008.3
20260509223529 78 0 1.0 6.0 0.00 0.00 0.00 40 1008.3
20260509223047 78 189 1.0 6.0 0.00 0.00 0.00 40 1008.3
20260509222532 78 30 2.0 6.0 0.00 0.00 0.00 40 1008.3
20260509222028 79 0 0.0 6.0 0.00 0.00 0.00 40 1008.5
20260509221558 79 0 1.0 6.0 0.00 0.00 0.00 39 1008.5
20260509221031 78 0 1.0 9.0 0.00 0.00 0.00 40 1008.5
20260509220531 78 45 2.0 9.0 0.00 0.00 0.00 40 1008.3
20260509220043 79 329 1.0 6.0 0.00 0.00 0.00 38 1008.3
20260509215532 79 20 0.0 6.0 0.00 0.00 0.00 40 1008.3
20260509215029 79 219 1.0 5.0 0.00 0.00 0.00 41 1008.3
20260509214544 78 0 1.0 5.0 0.00 0.00 0.00 41 1008.4
20260509214031 78 0 0.0 5.0 0.00 0.00 0.00 41 1008.3
20260509213528 78 27 2.0 6.0 0.00 0.00 0.00 41 1008.5
20260509213046 78 336 2.0 9.0 0.00 0.00 0.00 40 1008.4
20260509212529 77 323 2.0 9.0 0.00 0.00 0.00 38 1008.4
20260509212033 79 197 2.0 9.0 0.00 0.00 0.00 38 1008.4
20260509211539 79 0 0.0 4.0 0.00 0.00 0.00 42 1008.4
20260509211032 78 52 1.0 4.0 0.00 0.00 0.00 41 1008.6
20260509210529 78 357 1.0 7.0 0.00 0.00 0.00 42 1008.5
20260509210039 77 0 1.0 10.0 0.00 0.00 0.00 41 1008.5
20260509205528 77 347 1.0 10.0 0.00 0.00 0.00 40 1008.5
20260509205031 78 235 1.0 10.0 0.00 0.00 0.00 45 1008.6